Location: Newark
(49.3667°N, 21.6167°E)
Time: 01:30:24
(UTC+00:00)

Envisat - Pass Details

Date: 11 December 2019
Orbit: 764 x 766 km, 98.1° (Epoch: 23 January)

Event Time Altitude Azimuth Distance (km) Brightness Sun altitude
Rises 04:01:41 0° 28° (NNE) 3,245 6.5 -21.2°
Reaches altitude 10° 04:05:00 10° 51° (NE) 2,312 6.0 -20.6°
Maximum altitude 04:07:59 16° 87° (E) 1,951 6.1 -20.2°
Drops below altitude 10° 04:10:56 10° 123° (ESE) 2,301 6.5 -19.7°
Sets 04:14:12 0° 146° (SE) 3,221 7.0 -19.2°
